Regional Weather Roundup
Issued by NWS Mobile, AL

Home | Current Version | Previous Version | Text Only | Print | Product List | Glossary On
Versions: 1 2 3 4 5 6 7 8 9 10 11 12 13 14 15 16 17 18 19 20 21 22 23 24 25 26 27 28 29 30 31 32 33 34 35 36 37 38 39 40 41 42 43 44 45 46 47 48 49 50
881
ASUS44 KMOB 090212
RWRMOB
REGIONAL WEATHER ROUNDUP
NATIONAL WEATHER SERVICE MOBILE AL
800 PM CST MON FEB 08 2016

NOTE: "FAIR" INDICATES FEW OR NO CLOUDS BELOW 12,000 FEET WITH NO
      SIGNIFICANT WEATHER AND/OR OBSTRUCTIONS TO VISIBILITY.

  * THESE STATIONS ARE PART OF THE UNIVERSITY OF SOUTH ALABAMA
    MESONET AND ARE NOT UNDER NWS OR FAA QUALITY CONTROL.

ALZ061>064-090300-
COASTAL ALABAMA

CITY           SKY/WX    TMP DP  RH WIND       PRES   REMARKS
MOBILE REG APT CLEAR     46  20  35 NW10G18   30.05R
BROOKLEY FIELD CLEAR     48  20  32 NW10G24   30.06R
USA CAMPUS*    NOT AVBL
DOG RIVER*     NOT AVBL


CITY           SKY/WX    TMP DP  RH WIND       PRES   REMARKS
MOUNT VERNON*  NOT AVBL
SARALAND*      NOT AVBL
BAY MINETTE*   NOT AVBL
LOXLEY*        NOT AVBL
ROBERTSDALE*   NOT AVBL
FAIRHOPE*      NOT AVBL
ELBERTA*       NOT AVBL
FOLEY*         NOT AVBL
GRAND BAY*     NOT AVBL
DAUPHIN ISLND* NOT AVBL
BON SCOUR NWR* NOT AVBL
GULF SHORES    CLEAR     49  21  33 NW12G28   30.03R

$$

ALZ051>060-090300-
INTERIOR SOUTHWEST AND SOUTH CENTRAL ALABAMA

CITY           SKY/WX    TMP DP  RH WIND       PRES   REMARKS
GREENVILLE     NOT AVBL
EVERGREEN      CLEAR     46  21  37 VRB6G18   29.98R
CASTLEBERRY*   NOT AVBL
ATMORE*        NOT AVBL
DIXIE*         NOT AVBL
ANDALUSIA/OPP  CLEAR     51  22  31 NW21G29   29.95
ANDALUSIA*     NOT AVBL
FLORALA APT    PTCLDY    47  21  35 VRB6      29.96
FLORALA*       NOT AVBL

$$

FLZ001>006-090300-
WESTERN FLORIDA PANHANDLE

CITY           SKY/WX    TMP DP  RH WIND       PRES   REMARKS
PENSACOLA      PTCLDY    50  20  30 NW18G24   29.99R
NAS PENSACOLA  NOT AVBL
MILTON         PTCLDY    47  22  37 NW14      29.99R
WHTNG S FIELD  NOT AVBL


CITY           SKY/WX    TMP DP  RH WIND       PRES   REMARKS
WALNUT HILL*   NOT AVBL
JAY*           NOT AVBL
DUKE FIELD     PTCLDY    49  19  30 NW13      29.95R
CRESTVIEW      MOCLDY    49  20  31 NW15G26   29.98R
VALPARAISO     PTCLDY    50  19  30 NW16      29.95R
DESTIN         MOCLDY    53  22  29 NW9G18    29.96R

$$

MSZ076-079-090300-
INTERIOR SOUTHEAST MISSISSIPPI

CITY           SKY/WX    TMP DP  RH WIND       PRES   REMARKS
LEAKESVILLE*   NOT AVBL
AGRICOLA*      NOT AVBL

$$

MARINE OBSERVATIONS

STATION/POSITION TIME  TEMP    WIND        PRES    WAVE
                       AIR SEA DIR/SP/G            HT/PER
                 (UTC) (F)     (DEG/KT/KT) (MB)    (FT/S)
PASCAGOULA       0100   50     320/ 13/ 20 1016.4R
PETIT BOIS ISLND 0100   52     330/ 20/ 26 1017.1R
KATRINA CUT      0100          330/ 23       N/A
CEDAR POINT      0100   51     330/ 18     1015.6R
E DAUPHIN ISLAND 0100   52     310/ 22/ 26 1016.0R
MIDDLE BAY LIGHT 0100          310/ 23     1014.9R
USCG MOBILE BAY  0100   50 55  310/ 10/ 15 1016.8R
STATE DOCKS      0100   50 54              1016.1R
MEAHER PARK      0100   50     310/ 11     1016.3R
WEEKS BAY        0000   53                   N/A
FORT MORGAN      0100   52     330/ 26/ 29 1015.0R
12 S ORANGE BCH  0150   54 63  320/ 27/ 33 1015.1R   6/ 6
PENSACOLA BAY    0100   55 54  310/  7/ 14 1014.8R

$$

SELECTED LOCATIONS ACROSS THE REGION

CITY           SKY/WX    TMP DP  RH WIND       PRES   REMARKS
NEW ORLEANS    CLEAR     50  18  28 NW14      30.10R
GULFPORT       CLEAR     46  18  32 NW8       30.06R
PASCAGOULA AP  CLEAR     48  18  30 NW9       30.06R
PASCAGOULA*    NOT AVBL
HATTIESBURG    CLEAR     44  18  35 W3        30.06R
LAUREL         CLEAR     39  18  41 W3        30.05R
MERIDIAN       CLEAR     40  21  46 W5        30.03R
JACKSON        PTCLDY    44  20  38 NW9       30.05R
MONTGOMERY     PTCLDY    45  24  43 NW21      29.95R
TROY           CLEAR     47  24  40 NW20G29   29.93R
KINSTON*       NOT AVBL
GENEVA*        NOT AVBL
ASHFORD*       NOT AVBL
DOTHAN         CLEAR     46  24  42 NW13      29.92R
PANAMA CITY    CLEAR     50  22  33 W15       29.93R

$$





USA.gov is the U.S. government's official web portal to all federal, state and local government web resources and services.